This is the latest recevied weather packets stored in our database for station/object IZ1UKX-13. If no packets are shown the sender has not sent any weather packets the latest 10 day(s).
| Time | Temp. | Humidity | Pressure | Rain* | Wind** | Luminosity | Snow |
|---|---|---|---|---|---|---|---|
| 1777896998 | 21.67° C | 51% | 1022.7 hPa | 0 mm | - | 0 W/m² | - |
| 1777896699 | 21.11° C | 51% | 1022.7 hPa | 0 mm | - | 0 W/m² | - |
| 1777896398 | 20.56° C | 55% | 1022.7 hPa | 0 mm | - | 0 W/m² | - |
| 1777896098 | 20° C | 57% | 1023.2 hPa | 0 mm | - | 0 W/m² | - |
| 1777895798 | 19.44° C | 52% | 1023.2 hPa | 0 mm | - | 0 W/m² | - |
| 1777895498 | 18.89° C | 59% | 1023.2 hPa | 0 mm | - | 0 W/m² | - |
| 1777895198 | 18.89° C | 59% | 1023.2 hPa | 0 mm | - | 0 W/m² | - |
| 1777894898 | 18.89° C | 61% | 1023.2 hPa | 0 mm | - | 0 W/m² | - |
| 1777894599 | 18.33° C | 62% | 1023.8 hPa | 0 mm | - | 0 W/m² | - |
| 1777894574 | 18.33° C | 62% | 1023.8 hPa | 0 mm | - | 0 W/m² | - |
| 1777894549 | 18.33° C | 62% | 1023.6 hPa | 0 mm | - | 0 W/m² | - |
| 1777894525 | 18.33° C | 61% | 1023.2 hPa | 0 mm | - | 0 W/m² | - |
| 1777894475 | 18.33° C | 61% | 1023.6 hPa | 0 mm | - | 0 W/m² | - |
| 1777894449 | 18.33° C | 61% | 1023.2 hPa | 0 mm | - | 0 W/m² | - |
| 1777894149 | 18.33° C | 61% | 1023.2 hPa | 0 mm | - | 0 W/m² | - |
| 1777893849 | 18.33° C | 59% | 1023.2 hPa | 0 mm | - | 0 W/m² | - |
| 1777893549 | 18.89° C | 57% | 1023.2 hPa | 0 mm | - | 0 W/m² | - |
| 1777893249 | 19.44° C | 57% | 1023.2 hPa | 0 mm | - | 0 W/m² | - |
| 1777892949 | 18.89° C | 57% | 1023.2 hPa | 0 mm | - | 0 W/m² | - |
| 1777892649 | 19.44° C | 56% | 1023.2 hPa | 0 mm | - | 0 W/m² | - |
| 1777892349 | 19.44° C | 57% | 1023.2 hPa | 0 mm | - | 0 W/m² | - |
| 1777892049 | 19.44° C | 60% | 1023.2 hPa | 0 mm | - | 0 W/m² | - |
| 1777891749 | 18.33° C | 62% | 1023.2 hPa | 0 mm | - | 0 W/m² | - |
| 1777891448 | 18.33° C | 63% | 1023.2 hPa | 0 mm | - | 0 W/m² | - |
| 1777891149 | 18.33° C | 64% | 1023.2 hPa | 0 mm | - | 0 W/m² | - |
* Rain latest hour (hover to see other rain measurements)
** Current wind speed in m/s (hover to see current wind gust speed)